Theta_e
306 307 309 311 313 313 316 318 320 319 318 317 321 325 324 325 321 321 320 325 326 328 323 316 323 316 313 314 315 316 324 327 326 324 325 320 322 317 319 323 326 325 325 327 328
307 307 308 309 312 313 314 316 318 319 317 318 318 321 324 325 323 320 327 323 329 323 327 317 321 316 316 314 315 318 323 323 321 321 321 319 322 318 320 323 323 325 322 324 328
307 307 307 309 310 312 313 315 318 319 318 317 319 325 320 321 320 321 328 326 325 321 322 330 321 323 313 314 315 316 321 317 317 317 316 318 318 317 320 323 324 324 325 323 329
305 307 308 309 310 311 311 311 314 319 319 317 318 322 319 322 325 324 327 328 327 321 318 320 322 324 314 316 314 318 316 317 316 315 315 316 317 317 318 323 320 322 322 321 326
305 306 308 309 310 311 311 314 316 316 317 318 318 319 322 322 321 319 323 327 328 325 320 321 318 316 322 314 314 317 313 315 314 314 314 314 316 319 317 317 318 319 320 321 323
305 307 307 309 311 311 309 309 316 315 315 318 318 319 320 322 322 316 319 322 325 323 319 322 321 313 313 316 318 314 314 313 313 314 314 315 315 314 317 317 316 318 319 322 323
306 306 304 308 310 311 311 309 309 313 315 318 318 319 321 320 322 321 312 320 324 322 322 321 322 321 312 313 313 312 313 313 313 314 315 314 315 315 316 316 318 317 324 327 329
305 305 304 306 309 311 310 308 307 311 312 315 319 319 321 322 322 323 323 313 324 324 322 325 322 321 316 311 311 314 315 314 314 313 313 314 319 318 315 316 319 322 324 320 321
305 304 303 305 308 309 310 308 307 307 312 312 317 319 320 320 322 323 324 319 322 321 319 321 317 314 312 311 312 312 318 316 314 312 313 315 319 316 314 315 317 320 323 323 324
304 304 305 305 308 308 309 309 307 308 311 310 312 320 313 319 322 323 321 317 319 315 320 320 316 315 316 313 322 313 317 314 316 313 312 316 318 314 312 315 316 318 321 324 321
304 304 303 304 306 308 307 308 307 310 313 311 315 320 317 316 320 320 320 315 314 314 313 312 314 316 320 315 322 316 319 316 314 311 314 316 318 318 312 312 315 315 316 321 318
304 303 303 304 306 307 306 306 306 309 312 311 309 315 316 318 313 316 318 317 310 311 308 310 315 313 316 319 314 314 314 315 311 310 312 314 315 317 313 313 314 316 316 316 317
303 303 305 306 306 306 306 305 306 311 312 313 311 311 315 318 314 312 317 314 311 311 310 312 315 310 310 310 312 313 316 315 315 310 310 311 315 315 314 312 311 312 313 314 316
303 303 305 305 305 306 306 306 306 309 311 312 312 316 314 316 313 315 316 314 310 312 311 309 307 310 311 312 313 313 310 312 312 314 315 310 317 316 316 314 311 313 313 314 314
303 303 304 304 305 305 305 305 305 311 315 312 313 312 314 317 310 311 314 311 310 310 308 312 308 310 312 313 312 314 309 312 311 314 312 311 313 316 309 314 315 315 315 315 316
302 303 303 303 304 305 305 305 305 309 315 311 311 312 314 312 312 309 308 311 310 309 310 308 307 310 312 306 311 306 309 308 309 311 313 314 313 315 313 313 315 315 315 315 315
301 301 301 302 303 303 304 307 307 314 308 309 309 311 315 313 310 310 310 308 309 310 311 308 308 306 307 309 306 309 312 312 313 313 313 305 308 314 313 312 313 314 312 309 311
301 300 300 300 301 302 303 305 308 312 311 308 310 314 317 312 310 310 310 309 309 311 311 311 310 308 307 311 310 310 313 313 316 313 313 304 310 313 311 309 308 307 307 308 309
299 299 298 300 300 300 303 305 309 311 310 310 313 314 312 313 311 310 311 310 310 311 313 312 310 306 306 306 310 310 311 310 308 302 311 311 309 309 311 308 306 306 305 306 307
298 298 299 298 300 301 303 304 308 307 308 311 315 316 313 311 312 312 311 311 311 307 308 310 310 307 306 307 306 309 309 309 310 315 313 309 309 313 311 309 307 307 306 307 307
298 298 299 298 299 301 302 303 304 307 307 313 315 316 314 313 312 313 312 312 312 308 305 309 310 308 306 308 310 308 309 308 310 311 317 312 311 309 308 307 307 307 307 307 309
298 301 300 299 302 302 302 303 303 306 307 308 314 315 314 314 313 314 313 313 311 308 308 309 310 310 308 306 306 310 310 310 312 309 307 309 312 304 306 307 305 305 305 306 309
297 299 301 301 303 303 303 304 304 306 308 307 313 313 314 315 314 315 313 310 310 308 308 308 310 312 309 308 306 307 306 310 308 309 309 315 312 304 305 306 305 305 304 306 308
297 300 302 302 303 303 303 306 305 305 307 308 310 310 314 315 313 315 313 311 310 309 308 308 309 312 313 312 309 308 307 309 309 313 310 310 311 307 308 308 305 304 305 306 309
296 299 301 305 304 304 304 305 305 305 306 308 308 312 315 314 312 313 313 310 310 308 308 309 313 307 306 308 309 309 308 308 308 310 310 311 309 309 309 309 307 307 305 307 308
296 297 300 301 304 305 306 306 306 306 308 306 310 312 313 313 313 312 312 312 311 308 308 306 312 308 308 306 308 309 308 308 309 310 310 308 309 308 307 307 306 307 306 307 308
296 296 298 302 305 305 306 307 308 308 308 308 310 311 312 312 312 310 312 310 310 310 309 311 309 313 311 306 310 312 309 308 309 310 310 309 310 307 305 307 307 307 307 308 308
Wind_Speed
26 27 28 27 26 27 30 27 22 23 20 24 28 25 21 26 29 35 33 30 27 23 27 15 11 11 13 9 7 9 5 8 7 6 3 9 10 7 6 7 6 9 3 9 23
24 26 26 26 27 27 27 29 30 28 22 21 27 24 22 23 26 37 34 29 35 17 30 27 14 5 7 8 6 6 6 9 5 6 3 8 10 11 7 8 7 10 10 13 24
26 26 26 26 27 26 27 30 27 24 25 21 25 22 22 22 24 25 34 38 30 14 13 27 19 13 2 8 5 5 6 6 6 6 4 9 10 8 7 9 15 18 18 17 27
26 26 25 26 26 26 26 31 34 26 26 22 27 24 32 22 7 14 36 32 29 25 17 16 23 18 6 7 7 5 5 6 6 8 6 5 8 8 15 8 7 11 17 19 27
27 27 27 25 26 25 26 25 27 43 32 25 27 27 33 28 16 6 19 34 37 32 27 26 23 18 12 9 8 5 3 7 6 8 5 6 9 8 14 13 6 15 17 19 22
27 27 26 25 22 26 28 26 15 29 41 29 30 28 35 26 18 11 14 29 36 36 34 30 17 11 9 10 12 10 8 5 7 6 4 5 5 6 9 17 11 15 19 19 21
26 26 31 27 25 24 26 28 30 26 33 36 32 35 34 35 25 21 10 15 38 40 39 36 27 19 10 5 4 7 6 3 7 8 6 6 4 12 9 18 16 17 17 17 18
27 26 26 30 25 24 23 26 26 29 42 21 30 37 19 31 23 24 25 14 33 37 36 36 28 20 10 9 6 9 6 6 7 9 4 7 12 17 17 16 18 15 14 18 20
27 25 24 30 26 23 21 20 20 23 40 44 28 43 20 24 31 22 23 23 24 28 18 27 23 7 8 8 4 4 11 12 5 10 4 10 9 1 12 16 17 18 18 18 18
31 28 26 26 29 23 20 15 14 20 28 40 35 25 15 30 39 32 22 20 22 18 20 16 8 2 5 11 15 10 10 8 12 8 7 11 13 2 9 12 14 14 15 16 20
32 29 27 27 29 23 19 15 9 13 31 24 7 14 29 21 30 31 29 22 14 9 5 8 5 15 23 13 12 16 13 11 11 5 8 14 13 13 6 9 14 15 16 17 22
31 26 27 26 26 23 22 29 30 6 12 41 43 28 29 34 10 32 35 16 9 6 3 6 12 14 18 19 10 13 13 11 3 4 6 6 15 14 11 9 17 18 17 21 22
27 29 27 25 22 25 31 35 31 16 5 17 39 33 32 37 17 29 35 25 16 15 13 14 8 16 9 11 15 12 17 12 5 5 2 1 13 13 10 16 14 18 18 18 25
27 31 28 26 23 28 34 32 28 24 3 5 12 16 28 27 10 42 37 27 6 20 9 6 3 17 13 18 17 11 6 8 9 9 8 5 6 15 21 13 11 21 22 27 26
27 32 29 29 20 28 23 31 29 18 6 14 9 17 32 31 38 26 35 13 17 16 9 10 12 16 18 22 15 5 10 8 3 7 2 5 6 9 2 13 20 26 24 29 32
30 31 30 28 28 23 20 19 31 5 9 7 10 11 12 18 20 33 19 13 17 13 10 2 6 13 9 3 12 15 12 7 3 1 8 15 10 8 8 17 20 24 30 36 35
26 27 28 30 20 26 19 12 5 6 7 8 6 14 22 17 17 32 24 16 11 9 10 5 4 4 8 10 7 7 17 5 6 6 7 2 7 12 10 12 14 12 15 16 26
23 19 20 25 26 16 15 5 8 3 7 4 10 21 17 21 23 28 29 22 14 15 18 14 8 12 6 13 11 16 17 5 7 5 4 2 8 4 12 10 10 9 5 11 15
19 16 17 22 22 21 10 12 4 4 8 14 16 22 6 13 13 21 25 28 15 17 13 16 9 3 5 5 16 13 12 5 6 1 2 5 4 11 7 7 9 7 12 13 10
17 10 17 20 22 18 6 20 7 8 7 19 14 13 8 10 18 18 27 23 15 13 3 11 7 5 3 5 2 12 11 6 2 5 5 4 4 7 4 4 1 5 14 13 15
14 5 3 19 27 18 10 11 19 14 8 17 16 9 13 15 20 24 33 22 26 18 5 15 6 6 6 10 17 7 11 2 5 3 4 2 4 4 3 3 4 4 10 15 19
11 3 13 33 8 7 13 11 22 12 20 11 16 14 23 26 19 19 27 17 33 23 16 6 7 8 14 4 3 12 14 15 7 5 1 1 3 3 5 7 8 10 9 13 17
8 5 19 38 9 13 14 17 16 15 10 9 14 15 19 17 11 16 18 4 40 17 19 10 4 7 6 3 3 14 9 18 3 2 7 5 3 2 3 4 8 9 10 15 17
7 3 9 31 17 23 24 18 20 10 15 17 9 13 23 18 9 17 14 15 29 20 11 8 3 8 14 19 9 10 13 15 12 5 6 14 5 3 3 4 4 8 14 16 19
12 7 7 6 14 20 27 22 25 22 13 27 8 24 26 15 11 14 17 10 18 22 6 3 5 3 5 4 12 18 19 19 21 18 13 14 13 8 10 9 12 12 17 21 22
11 6 7 11 32 30 28 21 28 27 12 9 18 27 26 20 19 26 19 18 19 11 14 1 4 4 3 5 4 11 16 20 25 21 22 8 10 4 6 10 11 17 20 23 23
21 20 10 10 19 25 25 23 25 21 27 21 23 22 29 24 12 22 23 20 17 20 19 14 6 4 4 2 6 1 19 19 18 22 27 19 15 9 7 12 18 22 24 25 23
Wind_Direction
227 229 228 229 231 231 230 229 233 241 226 225 228 239 247 250 216 218 208 212 203 207 190 175 174 172 177 174 162 157 199 208 193 195 168 158 186 173 197 146 173 183 162 169 179
228 228 229 229 227 233 231 230 230 241 229 232 227 237 244 241 225 215 211 207 208 188 200 182 186 159 165 161 164 184 209 200 179 196 181 176 200 172 174 169 196 180 178 172 184
225 227 228 230 228 229 234 230 226 227 230 225 224 230 233 212 209 230 209 208 205 178 202 203 214 209 196 166 171 173 205 166 198 192 180 177 194 185 190 200 207 199 186 183 186
226 227 227 228 228 228 232 238 230 217 226 223 224 217 224 207 232 225 220 205 198 174 180 185 202 188 203 172 175 184 199 175 157 193 164 198 170 198 209 221 219 200 200 193 191
222 227 224 224 226 226 229 234 229 223 221 231 230 220 201 210 232 207 193 201 195 189 183 184 182 186 201 179 147 211 165 184 165 179 193 182 212 207 220 230 224 195 202 202 198
223 222 221 221 225 226 227 235 211 223 227 229 227 216 202 208 229 193 177 194 202 186 182 182 194 189 152 190 188 190 173 184 189 195 192 205 213 201 228 210 207 197 202 206 206
219 222 224 218 221 224 228 232 232 231 216 214 222 216 215 204 219 204 179 200 201 193 188 194 210 207 154 136 168 147 138 142 206 190 203 178 198 225 208 192 194 200 203 204 208
224 223 225 218 221 224 216 234 242 235 231 228 211 214 222 213 208 208 206 184 204 194 202 200 210 207 191 133 127 158 168 180 182 177 196 188 237 224 198 187 196 200 208 217 218
218 222 218 216 214 216 210 223 238 254 228 228 223 203 222 205 204 201 205 198 199 190 175 192 169 169 154 156 158 189 186 204 181 199 159 203 240 161 187 198 202 205 211 218 218
216 211 214 213 209 213 214 221 253 244 229 227 246 209 193 195 194 192 193 178 167 159 173 158 156 172 199 195 191 155 185 198 203 181 209 204 240 200 199 203 211 209 214 216 218
214 212 211 209 208 207 208 204 234 219 194 207 260 215 198 176 192 187 191 154 146 158 173 150 156 196 199 200 189 175 184 187 199 163 197 221 229 231 196 217 211 206 213 221 227
210 207 196 204 203 201 212 208 222 210 199 215 241 249 185 173 132 169 186 181 136 167 152 150 212 196 177 196 186 172 173 189 134 140 204 234 243 243 217 230 220 222 211 223 229
198 191 195 196 192 195 208 216 218 201 245 221 235 247 180 175 156 165 166 156 162 170 223 169 198 163 159 163 167 180 191 185 204 139 164 243 258 236 225 232 233 234 233 228 231
195 191 191 190 194 199 212 218 221 232 250 228 201 210 176 181 144 170 158 136 156 184 221 237 155 166 177 194 189 179 197 159 141 174 219 198 255 224 226 216 219 235 232 238 235
188 188 191 195 199 205 210 221 217 184 212 166 170 167 176 183 135 178 170 145 155 158 166 210 182 164 180 193 190 170 145 146 154 214 262 184 244 236 200 224 226 227 230 236 242
186 189 191 199 206 196 197 216 214 186 211 181 156 158 164 177 151 151 159 153 154 164 193 331 229 180 170 121 180 138 114 82 92 169 249 234 232 224 208 222 233 224 225 234 242
182 188 194 202 211 207 192 189 226 241 155 165 189 157 178 171 134 154 165 161 150 138 169 233 181 144 152 138 140 171 160 155 196 208 240 117 224 251 239 233 236 244 231 226 235
176 180 198 210 205 192 195 228 230 180 182 131 161 161 182 152 156 165 159 168 170 178 155 177 193 183 174 194 174 179 183 179 178 194 188 116 232 224 246 269 234 219 189 206 216
181 187 206 205 204 197 189 212 236 259 154 155 166 152 156 145 140 167 176 172 169 177 155 181 192 174 215 153 161 180 207 136 106 67 229 202 256 270 243 239 227 219 221 218 219
187 197 226 207 191 182 191 227 221 216 291 168 166 180 145 157 153 174 178 190 171 199 151 167 139 217 165 136 136 194 144 182 196 158 228 211 262 235 266 214 209 224 218 218 217
190 171 234 178 177 183 200 222 229 251 241 191 172 173 158 153 155 170 178 177 191 181 133 159 132 169 172 211 180 155 190 177 147 167 205 202 234 212 227 262 259 255 215 203 195
166 184 174 165 165 187 209 220 205 249 226 272 193 166 173 170 166 176 183 180 183 167 177 176 115 156 190 72 297 205 198 192 192 181 184 16 262 150 238 256 242 243 216 189 183
170 216 189 175 182 189 197 229 211 218 213 255 193 193 165 170 158 196 176 136 178 170 171 170 158 115 146 274 196 211 198 199 139 108 189 172 206 162 216 234 238 233 198 182 181
166 209 178 194 207 186 191 201 209 211 224 231 221 174 165 189 133 179 160 179 192 183 180 120 127 176 190 219 134 194 194 194 195 209 152 224 216 238 200 205 191 170 177 181 178
182 224 197 212 198 195 189 188 203 216 226 220 244 176 172 168 153 174 163 153 182 185 150 117 107 95 17 130 167 183 181 179 198 208 205 221 211 208 199 192 190 178 177 177 178
171 200 192 251 211 189 190 202 199 208 172 214 218 176 176 177 188 173 164 171 170 181 180 8 126 117 35 45 117 175 183 186 207 208 236 237 239 195 189 176 186 187 183 182 181
235 238 251 263 208 190 186 179 195 189 208 226 218 172 184 191 185 161 165 150 153 173 180 182 133 130 126 53 90 70 204 198 210 208 220 221 216 177 190 199 206 199 196 192 189